• Join FlightAware (Why Join?)
  • Login
  • US Flag GB Flag 
03:09 EDT


 

Airport Tracker/Info


-or-


 

Live Flight TrackerFlight Track Log ✈ CTL13 ✈ 18-Apr-2013 ✈ KMDW - KGRR

Flight Track Log - Related Links

Times and Time Zones

All times are in EDT time to prevent confusion due to time zone crossing. See the CTL13 flight status page for this flight to view local times or setup timezone preferences in your user account.

Time Position Orientation Groundspeed Altitude Reporting Facility
EDT Latitude Longitude Course Direction KTS MPH feet Rate Location/Type
23:11 41.8000 -87.7167 93° East 160 184 2,400  Level Chicago TRACON
23:12 41.8000 -87.6500 90° East 154 177 3,500 780 Climbing Chicago TRACON
23:13 41.8000 -87.6000 90° East 188 216 4,000 300 Climbing Chicago TRACON
23:14 41.7936 -87.5803 113° Southeast 172 198 4,000 360 Level Chicago Center
23:15 41.8006 -87.4903 84° East 195 224 4,600 480 Climbing Chicago Center
23:16 41.8050 -87.4231 85° East 191 220 5,000 660 Climbing Chicago Center
23:17 41.7772 -87.3190 93° East  Level FlightAware Approximate
23:17 41.8086 -87.3506 86° East 192 221 6,000  Level Chicago Center
23:18 41.8269 -87.2822 70° East 219 252 6,100  Climbing Chicago Center
23:19 41.8706 -87.2156 49° Northeast 232 267 6,000 -120 Descending Chicago Center
23:20 41.9119 -87.1464 51° Northeast 238 274 5,900 -60 Descending Chicago Center
23:21 41.9547 -87.0803 49° Northeast 236 272 5,900  Level Chicago Center
23:22 41.9972 -87.0156 49° Northeast 232 267 5,900 480 Level Chicago Center
23:23 42.0444 -86.9400 50° Northeast 220 253 6,900 480 Climbing Chicago Center
23:24 42.0764 -86.8850 52° Northeast 205 236 6,900  Level Chicago Center
23:25 42.1150 -86.8231 50° Northeast 214 246 6,900  Level Chicago Center
23:26 42.1544 -86.7608 49° Northeast 219 252 6,900  Level Chicago Center
23:27 42.1961 -86.7008 47° Northeast 219 252 7,000  Climbing Chicago Center
23:28 42.2369 -86.6381 49° Northeast 223 257 7,000 -60 Level Chicago Center
23:29 42.2778 -86.5792 47° Northeast 218 251 6,900  Descending Chicago Center
23:30 42.3239 -86.5111 47° Northeast 215 247 7,000  Climbing Chicago Center
23:31 42.3628 -86.4467 51° Northeast 219 252 7,000  Level Chicago Center
23:32 42.4019 -86.3831 50° Northeast 221 254 7,100 -60 Climbing Chicago Center
23:33 42.4414 -86.3189 50° Northeast 222 255 6,900 -60 Descending Chicago Center
23:34 42.4794 -86.2508 53° Northeast 225 259 7,000  Climbing Chicago Center
23:35 42.5161 -86.1833 54° Northeast 224 258 6,900  Descending Chicago Center
23:36 42.5675 -86.1053 48° Northeast 232 267 7,000  Climbing Chicago Center
23:37 42.6144 -86.0400 46° Northeast 239 275 7,000 -180 Level Chicago Center
23:38 42.6486 -85.9739 55° Northeast 224 258 6,700 -600 Descending Chicago Center
23:39 42.6819 -85.9153 52° Northeast 205 236 5,900 -780 Descending Chicago Center
23:40 42.7144 -85.8583 52° Northeast 196 226 5,200 -780 Descending Chicago Center
23:41 42.7450 -85.7989 55° Northeast 193 222 4,400 -780 Descending Chicago Center
23:42 42.7800 -85.7317 55° Northeast 211 243 3,700 -780 Descending Chicago Center
23:43 42.8194 -85.6633 52° Northeast 226 260 2,900 -540 Descending Chicago Center
23:45 42.8514 -85.6011 55° Northeast 215 247 2,600 -420 Descending Chicago Center
23:46 42.9081 -85.5656 25° Northeast 213 245 2,100 -720 Descending Chicago Center
23:47 42.9050 -85.5206 95° East 154 177 1,200 -540 Descending Chicago Center
23:48 42.8756 -85.5297 193° South 145 167 1,100 -120 Descending Chicago Center